| time (UTC) | temp C | wind direction | speed KPH | gust KPH | rain 1hr cm | rain 24hr cm | rain mn cm | humidity % | barometer mb |
| 20260903200542 | 20 | 0 | 0.0 | 0.0 | 0.00 | 0.46 | 0.46 | 86 | 1018.5 |
| 20260903200058 | 20 | 0 | 0.0 | 0.0 | 0.00 | 0.46 | 0.46 | 86 | 1018.4 |
| 20260903195543 | 20 | 0 | 0.0 | 0.0 | 0.00 | 0.46 | 0.46 | 87 | 1018.5 |
| 20260903195042 | 20 | 0 | 0.0 | 0.0 | 0.00 | 0.46 | 0.46 | 87 | 1018.3 |
| 20260903194606 | 20 | 0 | 0.0 | 0.0 | 0.00 | 0.46 | 0.46 | 87 | 1018.4 |
| 20260903194042 | 20 | 0 | 0.0 | 0.0 | 0.00 | 0.46 | 0.46 | 86 | 1018.5 |
| 20260903193543 | 20 | 0 | 0.0 | 0.0 | 0.00 | 0.46 | 0.46 | 86 | 1018.3 |
| 20260903193101 | 20 | 0 | 0.0 | 0.0 | 0.00 | 0.46 | 0.46 | 86 | 1018.2 |
| 20260903192543 | 20 | 0 | 0.0 | 0.0 | 0.00 | 0.46 | 0.46 | 86 | 1018.2 |
| 20260903192042 | 20 | 0 | 0.0 | 0.0 | 0.00 | 0.46 | 0.46 | 86 | 1018.3 |
| 20260903191602 | 20 | 0 | 0.0 | 0.0 | 0.00 | 0.46 | 0.46 | 86 | 1018.4 |
| 20260903191046 | 20 | 0 | 0.0 | 0.0 | 0.00 | 0.46 | 0.46 | 85 | 1018.3 |
| 20260903190543 | 20 | 0 | 0.0 | 0.0 | 0.00 | 0.46 | 0.46 | 85 | 1018.3 |
| 20260903190107 | 20 | 0 | 0.0 | 4.8 | 0.00 | 0.46 | 0.46 | 85 | 1018.4 |
| 20260903185542 | 20 | 0 | 0.0 | 6.4 | 0.00 | 0.46 | 0.46 | 85 | 1018.5 |
| 20260903185042 | 20 | 0 | 0.0 | 6.4 | 0.00 | 0.46 | 0.46 | 85 | 1018.7 |
| 20260903184606 | 20 | 0 | 0.0 | 6.4 | 0.00 | 0.46 | 0.46 | 84 | 1018.8 |
| 20260903184042 | 20 | 0 | 0.0 | 14.5 | 0.00 | 0.46 | 0.46 | 84 | 1018.9 |
| 20260903183542 | 20 | 0 | 1.6 | 14.5 | 0.00 | 0.46 | 0.46 | 84 | 1018.6 |
| 20260903183112 | 20 | 0 | 0.0 | 6.4 | 0.00 | 0.46 | 0.46 | 84 | 1018.5 |
| 20260903182543 | 20 | 0 | 0.0 | 8.0 | 0.00 | 0.46 | 0.46 | 84 | 1018.3 |
| 20260903182042 | 20 | 0 | 0.0 | 8.0 | 0.00 | 0.46 | 0.46 | 83 | 1018.3 |
| 20260903181603 | 20 | 0 | 0.0 | 4.8 | 0.00 | 0.46 | 0.46 | 83 | 1018.4 |
| 20260903181042 | 20 | 0 | 0.0 | 4.8 | 0.00 | 0.46 | 0.46 | 83 | 1018.2 |
| 20260903180543 | 20 | 0 | 0.0 | 11.3 | 0.00 | 0.46 | 0.46 | 82 | 1018.1 |
| 20260903180109 | 20 | 0 | 0.0 | 11.3 | 0.00 | 0.46 | 0.46 | 82 | 1018.1 |
| 20260903175543 | 20 | 0 | 0.0 | 11.3 | 0.00 | 0.46 | 0.46 | 82 | 1018.0 |
| 20260903175043 | 20 | 0 | 0.0 | 11.3 | 0.00 | 0.46 | 0.46 | 83 | 1018.1 |
| 20260903174558 | 20 | 221 | 0.0 | 0.0 | 0.00 | 0.46 | 0.46 | 84 | 1018.2 |
| 20260903174043 | 20 | 0 | 0.0 | 0.0 | 0.00 | 0.46 | 0.46 | 84 | 1018.1 |
| 20260903173544 | 20 | 0 | 0.0 | 12.9 | 0.00 | 0.46 | 0.46 | 83 | 1018.1 |
| 20260903173104 | 20 | 0 | 0.0 | 12.9 | 0.00 | 0.46 | 0.46 | 83 | 1018.3 |
| 20260903172542 | 20 | 0 | 1.6 | 12.9 | 0.00 | 0.46 | 0.46 | 83 | 1018.3 |
| 20260903172042 | 20 | 0 | 0.0 | 0.0 | 0.00 | 0.46 | 0.46 | 83 | 1018.4 |
| 20260903171614 | 20 | 0 | 0.0 | 0.0 | 0.00 | 0.46 | 0.46 | 83 | 1018.3 |
| 20260903171043 | 20 | 0 | 0.0 | 9.7 | 0.00 | 0.46 | 0.46 | 82 | 1018.2 |
| 20260903170546 | 20 | 0 | 0.0 | 12.9 | 0.00 | 0.46 | 0.46 | 82 | 1018.1 |
| 20260903170109 | 21 | 0 | 0.0 | 17.7 | 0.00 | 0.46 | 0.46 | 81 | 1018.1 |
| 20260903165542 | 21 | 239 | 3.2 | 25.7 | 0.00 | 0.46 | 0.46 | 80 | 1018.1 |
| 20260903165042 | 21 | 213 | 3.2 | 25.7 | 0.00 | 0.46 | 0.46 | 80 | 1017.9 |
| 20260903164609 | 21 | 0 | 1.6 | 25.7 | 0.00 | 0.46 | 0.46 | 81 | 1018.0 |
| 20260903164043 | 21 | 0 | 1.6 | 25.7 | 0.00 | 0.46 | 0.46 | 80 | 1018.0 |
| 20260903163545 | 21 | 207 | 4.8 | 19.3 | 0.00 | 0.46 | 0.46 | 81 | 1017.9 |
| 20260903163104 | 21 | 0 | 0.0 | 17.7 | 0.00 | 0.46 | 0.46 | 81 | 1017.9 |
| 20260903162542 | 21 | 211 | 4.8 | 27.4 | 0.00 | 0.46 | 0.46 | 80 | 1017.9 |
| 20260903162041 | 21 | 229 | 8.0 | 27.4 | 0.00 | 0.46 | 0.46 | 80 | 1018.0 |
| 20260903161604 | 21 | 249 | 3.2 | 22.5 | 0.00 | 0.46 | 0.46 | 80 | 1018.1 |
| 20260903161043 | 21 | 228 | 8.0 | 22.5 | 0.00 | 0.46 | 0.46 | 80 | 1018.1 |
| 20260903160543 | 21 | 208 | 4.8 | 27.4 | 0.00 | 0.46 | 0.46 | 80 | 1017.9 |
| 20260903160109 | 21 | 0 | 6.4 | 27.4 | 0.00 | 0.46 | 0.46 | 80 | 1017.9 |
| 20260903155542 | 21 | 237 | 6.4 | 27.4 | 0.00 | 0.46 | 0.46 | 79 | 1017.9 |
| 20260903155042 | 21 | 241 | 8.0 | 30.6 | 0.00 | 0.46 | 0.46 | 79 | 1018.1 |
| 20260903154609 | 21 | 236 | 4.8 | 30.6 | 0.00 | 0.46 | 0.46 | 78 | 1018.1 |
| 20260903154047 | 21 | 183 | 11.3 | 33.8 | 0.00 | 0.46 | 0.46 | 78 | 1018.1 |
| 20260903153544 | 21 | 229 | 6.4 | 33.8 | 0.00 | 0.46 | 0.46 | 78 | 1018.2 |
| 20260903153107 | 21 | 216 | 9.7 | 29.0 | 0.00 | 0.46 | 0.46 | 79 | 1018.3 |
| 20260903152543 | 21 | 240 | 9.7 | 29.0 | 0.00 | 0.46 | 0.46 | 80 | 1018.2 |
| 20260903152042 | 21 | 0 | 1.6 | 27.4 | 0.00 | 0.46 | 0.46 | 80 | 1018.1 |
| 20260903151604 | 21 | 215 | 8.0 | 27.4 | 0.00 | 0.46 | 0.46 | 79 | 1018.1 |
| 20260903151046 | 21 | 210 | 6.4 | 27.4 | 0.00 | 0.46 | 0.46 | 78 | 1018.2 |
| 20260903150545 | 21 | 206 | 8.0 | 27.4 | 0.00 | 0.46 | 0.46 | 80 | 1018.2 |
| 20260903150108 | 20 | 212 | 1.6 | 24.1 | 0.00 | 0.46 | 0.46 | 81 | 1018.2 |
| 20260903145542 | 20 | 0 | 1.6 | 19.3 | 0.00 | 0.46 | 0.46 | 81 | 1018.2 |
| 20260903145045 | 21 | 231 | 1.6 | 24.1 | 0.00 | 0.46 | 0.46 | 80 | 1018.3 |
| 20260903144559 | 21 | 0 | 1.6 | 25.7 | 0.00 | 0.46 | 0.46 | 81 | 1018.2 |
| 20260903144044 | 21 | 248 | 9.7 | 25.7 | 0.00 | 0.46 | 0.46 | 80 | 1018.1 |
| 20260903143542 | 21 | 230 | 6.4 | 30.6 | 0.00 | 0.46 | 0.46 | 81 | 1018.2 |
| 20260903143109 | 20 | 169 | 11.3 | 30.6 | 0.00 | 0.46 | 0.46 | 82 | 1018.1 |
| 20260903142543 | 20 | 0 | 4.8 | 30.6 | 0.00 | 0.46 | 0.46 | 82 | 1018.1 |
| 20260903142046 | 20 | 0 | 6.4 | 30.6 | 0.00 | 0.46 | 0.46 | 82 | 1018.1 |
| 20260903141611 | 20 | 236 | 6.4 | 30.6 | 0.00 | 0.46 | 0.46 | 82 | 1018.1 |
| 20260903141042 | 20 | 0 | 4.8 | 24.1 | 0.00 | 0.46 | 0.46 | 83 | 1018.2 |
| 20260903140542 | 20 | 244 | 4.8 | 24.1 | 0.00 | 0.46 | 0.46 | 83 | 1018.2 |
| 20260903140115 | 20 | 0 | 0.0 | 32.2 | 0.00 | 0.46 | 0.46 | 83 | 1018.2 |
| 20260903135542 | 20 | 227 | 4.8 | 32.2 | 0.00 | 0.46 | 0.46 | 82 | 1018.3 |
| 20260903135043 | 20 | 0 | 6.4 | 24.1 | 0.00 | 0.46 | 0.46 | 84 | 1018.3 |
| 20260903134559 | 20 | 0 | 8.0 | 29.0 | 0.00 | 0.46 | 0.46 | 83 | 1018.2 |
| 20260903134043 | 20 | 221 | 8.0 | 35.4 | 0.00 | 0.46 | 0.46 | 83 | 1018.0 |
| 20260903133543 | 20 | 243 | 8.0 | 35.4 | 0.00 | 0.46 | 0.46 | 83 | 1018.2 |
| 20260903133109 | 20 | 232 | 11.3 | 35.4 | 0.00 | 0.46 | 0.46 | 84 | 1018.2 |
| 20260903132547 | 20 | 0 | 11.3 | 35.4 | 0.00 | 0.46 | 0.46 | 84 | 1018.3 |
| 20260903132047 | 20 | 257 | 9.7 | 32.2 | 0.00 | 0.46 | 0.46 | 85 | 1018.3 |
| 20260903131611 | 20 | 200 | 9.7 | 32.2 | 0.00 | 0.46 | 0.46 | 85 | 1018.3 |
| 20260903131045 | 20 | 248 | 9.7 | 30.6 | 0.00 | 0.46 | 0.46 | 86 | 1018.3 |
| 20260903130546 | 20 | 248 | 11.3 | 33.8 | 0.00 | 0.46 | 0.46 | 87 | 1018.3 |
| 20260903130106 | 20 | 228 | 12.9 | 33.8 | 0.00 | 0.46 | 0.46 | 86 | 1018.4 |
| 20260903125546 | 20 | 274 | 11.3 | 32.2 | 0.00 | 0.46 | 0.46 | 87 | 1018.3 |
| 20260903125047 | 19 | 0 | 9.7 | 32.2 | 0.00 | 0.46 | 0.46 | 89 | 1018.1 |
| 20260903124601 | 19 | 242 | 3.2 | 33.8 | 0.00 | 0.46 | 0.46 | 90 | 1018.4 |
| 20260903124046 | 18 | 0 | 3.2 | 33.8 | 0.00 | 0.46 | 0.46 | 90 | 1018.3 |
| 20260903123546 | 18 | 244 | 8.0 | 30.6 | 0.00 | 0.46 | 0.46 | 90 | 1018.1 |
| 20260903123107 | 18 | 214 | 11.3 | 25.7 | 0.00 | 0.46 | 0.46 | 91 | 1018.1 |
| 20260903122546 | 18 | 212 | 3.2 | 30.6 | 0.00 | 0.46 | 0.46 | 92 | 1018.0 |
| 20260903122046 | 18 | 251 | 8.0 | 30.6 | 0.00 | 0.46 | 0.46 | 93 | 1018.1 |
| 20260903121625 | 18 | 205 | 6.4 | 29.0 | 0.00 | 0.46 | 0.46 | 93 | 1018.1 |
| 20260903121044 | 17 | 248 | 9.7 | 29.0 | 0.00 | 0.46 | 0.46 | 93 | 1018.1 |
| 20260903120549 | 17 | 217 | 8.0 | 27.4 | 0.00 | 0.46 | 0.46 | 93 | 1018.1 |
| 20260903120112 | 17 | 224 | 3.2 | 25.7 | 0.00 | 0.46 | 0.46 | 94 | 1018.1 |
| 20260903115547 | 17 | 0 | 4.8 | 25.7 | 0.00 | 0.46 | 0.46 | 94 | 1018.2 |
| 20260903115046 | 17 | 0 | 3.2 | 30.6 | 0.00 | 0.46 | 0.46 | 94 | 1018.1 |
| 20260903114604 | 17 | 249 | 0.0 | 30.6 | 0.00 | 0.46 | 0.46 | 94 | 1018.2 |
| 20260903114047 | 17 | 0 | 8.0 | 27.4 | 0.00 | 0.46 | 0.46 | 94 | 1018.3 |
| 20260903113546 | 17 | 227 | 1.6 | 19.3 | 0.00 | 0.46 | 0.46 | 94 | 1018.3 |
| 20260903113057 | 17 | 0 | 1.6 | 19.3 | 0.00 | 0.46 | 0.46 | 94 | 1018.2 |
| 20260903112546 | 17 | 0 | 4.8 | 19.3 | 0.00 | 0.46 | 0.46 | 94 | 1018.3 |
| 20260903112046 | 17 | 0 | 0.0 | 22.5 | 0.00 | 0.46 | 0.46 | 94 | 1018.2 |
| 20260903111557 | 17 | 212 | 1.6 | 22.5 | 0.00 | 0.46 | 0.46 | 94 | 1018.3 |
| 20260903111047 | 17 | 232 | 1.6 | 17.7 | 0.00 | 0.46 | 0.46 | 94 | 1018.3 |
| 20260903110549 | 16 | 0 | 3.2 | 17.7 | 0.00 | 0.46 | 0.46 | 94 | 1018.2 |
| 20260903110104 | 16 | 0 | 0.0 | 19.3 | 0.00 | 0.46 | 0.46 | 94 | 1018.3 |
| 20260903105546 | 16 | 0 | 4.8 | 19.3 | 0.00 | 0.46 | 0.46 | 94 | 1018.5 |
| 20260903105047 | 16 | 0 | 3.2 | 24.1 | 0.00 | 0.46 | 0.46 | 94 | 1018.4 |
| 20260903104603 | 16 | 236 | 3.2 | 25.7 | 0.00 | 0.46 | 0.46 | 94 | 1018.4 |
| 20260903104045 | 16 | 200 | 6.4 | 25.7 | 0.00 | 0.46 | 0.46 | 94 | 1018.4 |
| 20260903103545 | 16 | 198 | 3.2 | 19.3 | 0.00 | 0.46 | 0.46 | 94 | 1018.4 |
| 20260903103056 | 16 | 0 | 0.0 | 14.5 | 0.00 | 0.46 | 0.46 | 94 | 1018.3 |
| 20260903102547 | 16 | 0 | 0.0 | 17.7 | 0.00 | 0.46 | 0.46 | 94 | 1018.3 |
| 20260903102046 | 16 | 0 | 1.6 | 17.7 | 0.00 | 0.46 | 0.46 | 93 | 1018.2 |
| 20260903101605 | 16 | 242 | 3.2 | 20.9 | 0.13 | 0.46 | 0.46 | 94 | 1018.3 |
| 20260903101048 | 16 | 229 | 3.2 | 20.9 | 0.13 | 0.46 | 0.46 | 94 | 1018.4 |
| 20260903100546 | 16 | 0 | 1.6 | 19.3 | 0.13 | 0.46 | 0.46 | 94 | 1018.4 |
| 20260903100104 | 16 | 0 | 0.0 | 16.1 | 0.13 | 0.46 | 0.46 | 94 | 1018.5 |
| 20260903095546 | 16 | 236 | 3.2 | 16.1 | 0.13 | 0.46 | 0.46 | 94 | 1018.6 |
| 20260903095045 | 16 | 248 | 4.8 | 16.1 | 0.13 | 0.46 | 0.46 | 94 | 1018.4 |
| 20260903094608 | 16 | 0 | 0.0 | 17.7 | 0.18 | 0.46 | 0.46 | 94 | 1018.3 |
| 20260903094043 | 16 | 0 | 0.0 | 17.7 | 0.23 | 0.46 | 0.46 | 94 | 1018.5 |
| 20260903093543 | 16 | 0 | 1.6 | 17.7 | 0.36 | 0.46 | 0.46 | 94 | 1018.2 |
| 20260903093108 | 16 | 0 | 1.6 | 14.5 | 0.43 | 0.46 | 0.46 | 93 | 1018.3 |
| 20260903092546 | 16 | 246 | 1.6 | 14.5 | 0.46 | 0.46 | 0.46 | 93 | 1018.2 |
| 20260903092047 | 16 | 0 | 0.0 | 12.9 | 0.41 | 0.41 | 0.41 | 92 | 1018.4 |
| 20260903091606 | 16 | 0 | 0.0 | 14.5 | 0.30 | 0.30 | 0.30 | 92 | 1018.4 |
| 20260903091046 | 16 | 0 | 0.0 | 14.5 | 0.30 | 0.30 | 0.30 | 93 | 1018.4 |
| 20260903090543 | 16 | 0 | 0.0 | 12.9 | 0.30 | 0.30 | 0.30 | 93 | 1018.4 |
| 20260903090109 | 16 | 0 | 1.6 | 12.9 | 0.30 | 0.30 | 0.30 | 93 | 1018.4 |
| 20260903085549 | 16 | 0 | 0.0 | 14.5 | 0.30 | 0.30 | 0.30 | 92 | 1018.3 |
| 20260903085046 | 16 | 0 | 0.0 | 14.5 | 0.30 | 0.30 | 0.30 | 91 | 1018.4 |
| 20260903084602 | 16 | 226 | 1.6 | 17.7 | 0.28 | 0.28 | 0.28 | 90 | 1018.4 |
| 20260903084043 | 16 | 0 | 1.6 | 25.7 | 0.20 | 0.20 | 0.20 | 87 | 1018.5 |
| 20260903083542 | 16 | 224 | 6.4 | 25.7 | 0.08 | 0.08 | 0.08 | 85 | 1018.4 |
| 20260903083056 | 17 | 200 | 4.8 | 25.7 | 0.00 | 0.00 | 0.00 | 83 | 1018.7 |
| 20260903082542 | 17 | 0 | 1.6 | 16.1 | 0.00 | 0.00 | 0.00 | 81 | 1018.5 |
| 20260903082046 | 18 | 0 | 0.0 | 22.5 | 0.00 | 0.00 | 0.00 | 79 | 1018.3 |
| 20260903081604 | 18 | 209 | 1.6 | 22.5 | 0.00 | 0.00 | 0.00 | 80 | 1018.3 |
| 20260903081043 | 17 | 227 | 4.8 | 22.5 | 0.00 | 0.00 | 0.00 | 80 | 1018.2 |
| 20260903080542 | 17 | 211 | 1.6 | 25.7 | 0.00 | 0.00 | 0.00 | 80 | 1018.1 |
| 20260903075546 | 18 | 248 | 8.0 | 37.0 | 0.00 | 0.00 | 0.00 | 74 | 1018.2 |
| 20260903075045 | 18 | 249 | 4.8 | 37.0 | 0.00 | 0.00 | 0.00 | 69 | 1018.0 |
| 20260903074607 | 18 | 224 | 1.6 | 25.7 | 0.00 | 0.00 | 0.00 | 69 | 1018.2 |
| 20260903074045 | 18 | 0 | 4.8 | 29.0 | 0.00 | 0.00 | 0.00 | 69 | 1018.2 |
| 20260903073544 | 18 | 234 | 4.8 | 29.0 | 0.00 | 0.00 | 0.00 | 69 | 1018.3 |
| 20260903073106 | 18 | 0 | 3.2 | 19.3 | 0.00 | 0.00 | 0.00 | 68 | 1018.2 |
| 20260903072544 | 18 | 0 | 1.6 | 20.9 | 0.00 | 0.00 | 0.00 | 69 | 1018.1 |
| 20260903072045 | 18 | 0 | 3.2 | 24.1 | 0.00 | 0.00 | 0.00 | 68 | 1018.0 |
| 20260903071609 | 18 | 258 | 4.8 | 29.0 | 0.00 | 0.00 | 0.00 | 68 | 1018.0 |
| 20260903071047 | 18 | 223 | 6.4 | 29.0 | 0.00 | 0.00 | 0.00 | 68 | 1018.2 |
| 20260903070544 | 18 | 0 | 3.2 | 22.5 | 0.00 | 0.00 | 0.00 | 68 | 1018.2 |
| 20260903070107 | 18 | 234 | 4.8 | 22.5 | 0.00 | 0.00 | 0.00 | 68 | 1018.2 |
| 20260903065545 | 18 | 0 | 0.0 | 22.5 | 0.00 | 0.00 | 0.00 | 68 | 1018.1 |
| 20260903065043 | 18 | 0 | 0.0 | 22.5 | 0.00 | 0.00 | 0.00 | 68 | 1018.3 |
| 20260903064602 | 18 | 0 | 4.8 | 19.3 | 0.00 | 0.00 | 0.00 | 68 | 1018.2 |
| 20260903064044 | 18 | 0 | 4.8 | 33.8 | 0.00 | 0.00 | 0.00 | 68 | 1018.2 |
| 20260903063545 | 18 | 0 | 1.6 | 33.8 | 0.00 | 0.00 | 0.00 | 68 | 1018.2 |
| 20260903063103 | 18 | 190 | 4.8 | 33.8 | 0.00 | 0.00 | 0.00 | 69 | 1018.1 |
| 20260903062545 | 18 | 0 | 3.2 | 19.3 | 0.00 | 0.00 | 0.00 | 69 | 1018.2 |
| 20260903062045 | 18 | 226 | 1.6 | 30.6 | 0.00 | 0.00 | 0.00 | 69 | 1018.1 |
| 20260903061605 | 18 | 186 | 4.8 | 30.6 | 0.00 | 0.00 | 0.00 | 69 | 1018.1 |
| 20260903061046 | 18 | 240 | 3.2 | 17.7 | 0.00 | 0.00 | 0.00 | 69 | 1018.2 |
| 20260903060544 | 18 | 229 | 6.4 | 17.7 | 0.00 | 0.00 | 0.00 | 70 | 1018.2 |
| 20260903060122 | 17 | 0 | 3.2 | 19.3 | 0.00 | 0.00 | 0.00 | 70 | 1018.1 |
| 20260903055543 | 17 | 0 | 3.2 | 19.3 | 0.00 | 0.00 | 0.00 | 70 | 1018.2 |
| 20260903055043 | 17 | 218 | 1.6 | 14.5 | 0.00 | 0.00 | 0.00 | 70 | 1018.1 |
| 20260903054557 | 17 | 0 | 1.6 | 12.9 | 0.00 | 0.00 | 0.00 | 70 | 1018.0 |
| 20260903054047 | 17 | 0 | 0.0 | 17.7 | 0.00 | 0.00 | 0.00 | 70 | 1017.8 |
| 20260903053544 | 17 | 0 | 3.2 | 17.7 | 0.00 | 0.00 | 0.00 | 70 | 1017.7 |
| 20260903053105 | 17 | 0 | 1.6 | 17.7 | 0.00 | 0.00 | 0.00 | 70 | 1017.7 |
| 20260903052543 | 17 | 175 | 1.6 | 12.9 | 0.00 | 0.00 | 0.00 | 69 | 1017.6 |
| 20260903052045 | 17 | 0 | 0.0 | 12.9 | 0.00 | 0.00 | 0.00 | 69 | 1017.8 |
| 20260903051608 | 17 | 0 | 0.0 | 12.9 | 0.00 | 0.00 | 0.00 | 70 | 1018.0 |
| 20260903051044 | 17 | 205 | 0.0 | 14.5 | 0.00 | 0.00 | 0.00 | 69 | 1018.2 |
| 20260903050543 | 17 | 0 | 1.6 | 16.1 | 0.00 | 0.00 | 0.00 | 70 | 1018.1 |
| 20260903050114 | 17 | 0 | 3.2 | 16.1 | 0.00 | 0.00 | 0.00 | 70 | 1018.3 |
| 20260903045545 | 17 | 159 | 1.6 | 16.1 | 0.00 | 0.00 | 0.00 | 70 | 1018.2 |
| 20260903045042 | 17 | 0 | 3.2 | 17.7 | 0.00 | 0.00 | 0.00 | 70 | 1018.3 |
| 20260903044606 | 17 | 0 | 3.2 | 17.7 | 0.00 | 0.00 | 0.00 | 71 | 1018.1 |
| 20260903044043 | 17 | 0 | 0.0 | 11.3 | 0.00 | 0.00 | 0.00 | 72 | 1018.1 |
| 20260903043543 | 17 | 237 | 0.0 | 11.3 | 0.00 | 0.00 | 0.00 | 73 | 1018.2 |
| 20260903043104 | 17 | 0 | 0.0 | 11.3 | 0.00 | 0.00 | 0.00 | 73 | 1018.3 |
| 20260903042546 | 17 | 0 | 0.0 | 11.3 | 0.00 | 0.00 | 0.00 | 73 | 1018.4 |
| 20260903042046 | 16 | 0 | 0.0 | 11.3 | 0.00 | 0.00 | 0.00 | 74 | 1018.3 |
| 20260903041559 | 16 | 0 | 0.0 | 9.7 | 0.00 | 0.00 | 0.00 | 74 | 1018.3 |
| 20260903041047 | 17 | 0 | 0.0 | 4.8 | 0.00 | 0.00 | 0.00 | 74 | 1018.2 |
| 20260903040549 | 17 | 0 | 0.0 | 4.8 | 0.00 | 0.00 | 0.00 | 74 | 1018.2 |
| 20260903040109 | 17 | 186 | 0.0 | 8.0 | 0.00 | 0.00 | 0.00 | 74 | 1018.4 |
| 20260903035542 | 17 | 0 | 0.0 | 9.7 | 0.00 | 0.00 | 0.00 | 74 | 1018.4 |
| 20260903035043 | 17 | 215 | 0.0 | 9.7 | 0.00 | 0.00 | 0.00 | 74 | 1018.7 |
| 20260903034602 | 17 | 0 | 0.0 | 8.0 | 0.00 | 0.00 | 0.00 | 74 | 1018.9 |
| 20260903034043 | 17 | 0 | 0.0 | 12.9 | 0.00 | 0.00 | 0.00 | 74 | 1018.9 |
| 20260903033549 | 17 | 0 | 0.0 | 12.9 | 0.00 | 0.00 | 0.00 | 74 | 1018.9 |
| 20260903033103 | 17 | 0 | 0.0 | 12.9 | 0.00 | 0.00 | 0.00 | 74 | 1018.9 |
| 20260903032543 | 17 | 0 | 0.0 | 9.7 | 0.00 | 0.00 | 0.00 | 73 | 1018.9 |
| 20260903032046 | 17 | 0 | 0.0 | 8.0 | 0.00 | 0.00 | 0.00 | 74 | 1018.9 |
| 20260903031606 | 17 | 0 | 0.0 | 11.3 | 0.00 | 0.00 | 0.00 | 74 | 1018.8 |
| 20260903031047 | 16 | 0 | 0.0 | 11.3 | 0.00 | 0.00 | 0.00 | 75 | 1019.0 |
| 20260903030546 | 16 | 195 | 0.0 | 8.0 | 0.00 | 0.00 | 0.00 | 75 | 1019.2 |
| 20260903030105 | 16 | 0 | 0.0 | 3.2 | 0.00 | 0.00 | 0.00 | 75 | 1019.0 |
| 20260903025545 | 16 | 0 | 0.0 | 0.0 | 0.00 | 0.00 | 0.00 | 75 | 1018.9 |
| 20260903025043 | 16 | 0 | 0.0 | 0.0 | 0.00 | 0.00 | 0.00 | 76 | 1018.9 |
| 20260903024604 | 16 | 0 | 0.0 | 0.0 | 0.00 | 0.00 | 0.00 | 75 | 1019.0 |
| 20260903024046 | 16 | 0 | 0.0 | 0.0 | 0.00 | 0.00 | 0.00 | 74 | 1019.0 |
| 20260903023546 | 16 | 0 | 0.0 | 4.8 | 0.00 | 0.00 | 0.00 | 74 | 1019.1 |
| 20260903023107 | 17 | 0 | 0.0 | 4.8 | 0.00 | 0.00 | 0.00 | 74 | 1019.3 |
| 20260903022543 | 17 | 0 | 0.0 | 12.9 | 0.00 | 0.00 | 0.00 | 75 | 1019.3 |
| 20260903022046 | 17 | 0 | 0.0 | 12.9 | 0.00 | 0.00 | 0.00 | 75 | 1019.3 |
| 20260903021559 | 17 | 0 | 0.0 | 12.9 | 0.00 | 0.00 | 0.00 | 75 | 1019.4 |
| 20260903021046 | 17 | 0 | 0.0 | 12.9 | 0.00 | 0.00 | 0.00 | 74 | 1019.6 |
| 20260903020542 | 17 | 0 | 0.0 | 6.4 | 0.00 | 0.00 | 0.00 | 74 | 1019.8 |
| 20260903020105 | 17 | 0 | 0.0 | 0.0 | 0.00 | 0.00 | 0.00 | 74 | 1019.6 |
| 20260903015543 | 17 | 0 | 0.0 | 0.0 | 0.00 | 0.00 | 0.00 | 74 | 1019.6 |
| 20260903015046 | 17 | 0 | 0.0 | 0.0 | 0.00 | 0.00 | 0.00 | 73 | 1019.6 |
| 20260903014633 | 17 | 0 | 0.0 | 0.0 | 0.00 | 0.00 | 0.00 | 73 | 1019.7 |
| 20260903014044 | 17 | 0 | 0.0 | 0.0 | 0.00 | 0.00 | 0.00 | 73 | 1019.7 |
| 20260903013544 | 17 | 0 | 0.0 | 16.1 | 0.00 | 0.00 | 0.00 | 73 | 1019.8 |
| 20260903013122 | 17 | 0 | 0.0 | 16.1 | 0.00 | 0.00 | 0.00 | 72 | 1019.8 |
| 20260903012543 | 17 | 238 | 0.0 | 14.5 | 0.00 | 0.00 | 0.00 | 73 | 1019.7 |
| 20260903012045 | 17 | 0 | 0.0 | 11.3 | 0.00 | 0.00 | 0.00 | 73 | 1019.8 |
| 20260903011608 | 17 | 0 | 0.0 | 11.3 | 0.00 | 0.00 | 0.00 | 74 | 1019.9 |
| 20260903011043 | 17 | 175 | 0.0 | 11.3 | 0.00 | 0.00 | 0.00 | 74 | 1019.9 |
| 20260903010546 | 16 | 0 | 0.0 | 3.2 | 0.00 | 0.00 | 0.00 | 75 | 1019.9 |
| 20260903010107 | 16 | 0 | 0.0 | 3.2 | 0.00 | 0.00 | 0.00 | 75 | 1019.8 |
| 20260903005547 | 16 | 0 | 0.0 | 0.0 | 0.00 | 0.00 | 0.00 | 75 | 1019.8 |
| 20260903005045 | 16 | 0 | 0.0 | 0.0 | 0.00 | 0.00 | 0.00 | 75 | 1019.9 |
| 20260903004605 | 17 | 0 | 0.0 | 8.0 | 0.00 | 0.00 | 0.00 | 74 | 1020.0 |
| 20260903004044 | 17 | 0 | 0.0 | 8.0 | 0.00 | 0.00 | 0.00 | 74 | 1020.0 |
| 20260903003544 | 17 | 0 | 0.0 | 8.0 | 0.00 | 0.00 | 0.00 | 74 | 1020.1 |
| 20260903003102 | 17 | 0 | 0.0 | 6.4 | 0.00 | 0.00 | 0.00 | 74 | 1020.2 |
| 20260903002547 | 17 | 0 | 0.0 | 9.7 | 0.00 | 0.00 | 0.00 | 74 | 1020.1 |
| 20260903002046 | 17 | 0 | 0.0 | 9.7 | 0.00 | 0.00 | 0.00 | 74 | 1020.3 |
| 20260903001601 | 17 | 0 | 0.0 | 3.2 | 0.00 | 0.00 | 0.00 | 74 | 1020.2 |
| 20260903001046 | 17 | 0 | 0.0 | 8.0 | 0.00 | 0.00 | 0.00 | 75 | 1020.4 |
| 20260903000548 | 16 | 0 | 0.0 | 8.0 | 0.00 | 0.00 | 0.00 | 76 | 1020.3 |
| 20260903000109 | 16 | 0 | 0.0 | 6.4 | 0.00 | 0.00 | 0.00 | 76 | 1020.3 |
| 20260902235547 | 16 | 0 | 0.0 | 6.4 | 0.00 | 0.00 | 0.00 | 77 | 1020.2 |
| 20260902235043 | 16 | 0 | 0.0 | 4.8 | 0.00 | 0.00 | 0.00 | 77 | 1020.4 |
| 20260902234605 | 16 | 0 | 0.0 | 4.8 | 0.00 | 0.00 | 0.00 | 77 | 1020.3 |
| 20260902234044 | 16 | 0 | 0.0 | 0.0 | 0.00 | 0.00 | 0.00 | 77 | 1020.4 |
| 20260902233543 | 16 | 0 | 0.0 | 0.0 | 0.00 | 0.00 | 0.00 | 78 | 1020.4 |
| 20260902233104 | 16 | 0 | 0.0 | 0.0 | 0.00 | 0.00 | 0.00 | 77 | 1020.5 |
| 20260902232542 | 16 | 0 | 0.0 | 0.0 | 0.00 | 0.00 | 0.00 | 77 | 1020.6 |
| 20260902232046 | 16 | 0 | 0.0 | 0.0 | 0.00 | 0.00 | 0.00 | 78 | 1020.6 |
| 20260902231602 | 16 | 0 | 0.0 | 0.0 | 0.00 | 0.00 | 0.00 | 77 | 1020.7 |
| 20260902231044 | 16 | 0 | 0.0 | 0.0 | 0.00 | 0.00 | 0.00 | 76 | 1020.7 |
| 20260902230548 | 16 | 0 | 0.0 | 0.0 | 0.00 | 0.00 | 0.00 | 76 | 1020.8 |
| 20260902230104 | 16 | 0 | 0.0 | 0.0 | 0.00 | 0.00 | 0.00 | 76 | 1020.8 |
| 20260902225546 | 16 | 0 | 0.0 | 0.0 | 0.00 | 0.00 | 0.00 | 76 | 1020.9 |
| 20260902225044 | 16 | 0 | 0.0 | 0.0 | 0.00 | 0.00 | 0.00 | 76 | 1020.8 |
| 20260902224611 | 16 | 0 | 0.0 | 0.0 | 0.00 | 0.00 | 0.00 | 78 | 1020.9 |
| 20260902224044 | 16 | 0 | 0.0 | 0.0 | 0.00 | 0.00 | 0.00 | 78 | 1020.9 |
| 20260902223542 | 16 | 0 | 0.0 | 0.0 | 0.00 | 0.00 | 0.00 | 80 | 1020.9 |
| 20260902223110 | 16 | 0 | 0.0 | 0.0 | 0.00 | 0.00 | 0.00 | 80 | 1020.9 |
| 20260902222542 | 16 | 0 | 0.0 | 0.0 | 0.00 | 0.00 | 0.00 | 81 | 1020.9 |
| 20260902222043 | 16 | 0 | 0.0 | 0.0 | 0.00 | 0.00 | 0.00 | 82 | 1020.9 |
| 20260902221600 | 16 | 0 | 0.0 | 0.0 | 0.00 | 0.00 | 0.00 | 83 | 1021.1 |
| 20260902221042 | 15 | 0 | 0.0 | 0.0 | 0.00 | 0.00 | 0.00 | 83 | 1021.1 |
| 20260902220546 | 15 | 0 | 0.0 | 0.0 | 0.00 | 0.00 | 0.00 | 83 | 1021.2 |
| 20260902220109 | 15 | 0 | 0.0 | 0.0 | 0.00 | 0.00 | 0.00 | 83 | 1021.0 |
| 20260902215542 | 15 | 0 | 0.0 | 0.0 | 0.00 | 0.00 | 0.00 | 83 | 1021.0 |
| 20260902215042 | 16 | 0 | 0.0 | 0.0 | 0.00 | 0.00 | 0.00 | 82 | 1021.0 |
| 20260902214615 | 16 | 0 | 0.0 | 0.0 | 0.00 | 0.00 | 0.00 | 82 | 1021.1 |
| 20260902214046 | 16 | 0 | 0.0 | 0.0 | 0.00 | 0.00 | 0.00 | 82 | 1021.1 |
| 20260902213546 | 16 | 0 | 0.0 | 0.0 | 0.00 | 0.00 | 0.00 | 82 | 1021.1 |
| 20260902213104 | 16 | 0 | 0.0 | 0.0 | 0.00 | 0.00 | 0.00 | 81 | 1021.1 |
| 20260902212546 | 16 | 0 | 0.0 | 0.0 | 0.00 | 0.00 | 0.00 | 81 | 1021.0 |
| 20260902212045 | 16 | 0 | 0.0 | 0.0 | 0.00 | 0.00 | 0.00 | 80 | 1021.0 |
| 20260902211601 | 16 | 0 | 0.0 | 0.0 | 0.00 | 0.00 | 0.00 | 80 | 1021.1 |
| 20260902211042 | 16 | 0 | 0.0 | 0.0 | 0.00 | 0.00 | 0.00 | 80 | 1021.1 |
| 20260902210547 | 16 | 0 | 0.0 | 0.0 | 0.00 | 0.00 | 0.00 | 79 | 1021.3 |
| 20260902205542 | 16 | 0 | 0.0 | 0.0 | 0.00 | 0.00 | 0.00 | 79 | 1021.2 |
| 20260902205043 | 16 | 0 | 0.0 | 0.0 | 0.00 | 0.00 | 0.00 | 78 | 1021.2 |
| 20260902204606 | 16 | 0 | 0.0 | 0.0 | 0.00 | 0.00 | 0.00 | 78 | 1021.3 |
| 20260902204043 | 16 | 0 | 0.0 | 0.0 | 0.00 | 0.00 | 0.00 | 77 | 1021.3 |
| 20260902203542 | 17 | 0 | 0.0 | 0.0 | 0.00 | 0.00 | 0.00 | 77 | 1021.3 |
| 20260902203104 | 17 | 0 | 0.0 | 0.0 | 0.00 | 0.00 | 0.00 | 77 | 1021.3 |
| 20260902202545 | 17 | 0 | 0.0 | 0.0 | 0.00 | 0.00 | 0.00 | 77 | 1021.3 |
| 20260902202045 | 17 | 0 | 0.0 | 0.0 | 0.00 | 0.00 | 0.00 | 77 | 1021.3 |
| 20260902201559 | 17 | 0 | 0.0 | 0.0 | 0.00 | 0.00 | 0.00 | 76 | 1021.3 |
| 20260902201046 | 17 | 0 | 0.0 | 0.0 | 0.00 | 0.00 | 0.00 | 76 | 1021.2 |